Weather History for Coffeyville, KS

Change the Weather History Date:

Tuesday, June 18, 2013

  Actual Average Record
Temperature  
Mean Temperature 76 °F -  
Max Temperature 88 °F 83 °F 95 °F (2011)
Min Temperature 64 °F 62 °F 54 °F (1999)
Cooling Degree Days 10    
Growing Degree Days 26 (Base 50)    
Moisture  
Dew Point 65 °F    
Average Humidity 80    
Maximum Humidity 100    
Minimum Humidity 43    
Precipitation  
Precipitation 0.00 in - - ()
Sea Level Pressure  
Sea Level Pressure 29.99 in    
Wind  
Wind Speed 1 mph (East)    
Max Wind Speed 10 mph    
Max Gust Speed -    
Visibility 6 miles    
Events Fog    
Averages and records for this station are not official NWS values.
T = Trace of Precipitation, MM = Missing Value Source: NWS Daily Summary

Daily Weather History Graph

Daily Weather History Graph

Search for Another Location

Airport:

Trip Planner

Search our weather history database for the weather conditions in past years. The results will help you decide how hot, cold, wet, or windy it might be!

Date:

Astronomy

Jun. 18, 2013 Rise Set
Actual Time 6:02 AM CDT 8:44 PM CDT
Civil Twilight 5:31 AM CDT 9:15 PM CDT
Nautical Twilight 4:52 AM CDT 9:54 PM CDT
Astronomical Twilight 4:09 AM CDT 10:37 PM CDT
Moon 3:35 PM CDT (6/18) 2:05 AM CDT (6/18)
Length of Visible Light 15h 44m
Length of Day
14h 42m
Waxing Gibbous, 71% of the Moon is Illuminated
Jun 18
Waxing Gibbous
Jun 23
Full
Jun 29
Last Quarter
Jul 8
New
Jul 15
First Quarter

Hourly Weather History & Observations

Time (CDT) Temp. Heat Index Dew Point Humidity Pressure Visibility Wind Dir Wind Speed Gust Speed Precip Events Conditions
12:52 AM 68.0 °F - 66.0 °F 93% 30.00 in 9.0 mi Calm Calm - N/A   Clear
1:52 AM 66.9 °F - 66.0 °F 97% 29.98 in 7.0 mi Calm Calm - N/A   Partly Cloudy
2:52 AM 66.9 °F - 66.0 °F 97% 29.98 in 8.0 mi Calm Calm - N/A   Clear
3:20 AM 66.2 °F - 64.4 °F 94% 29.99 in 1.5 mi Calm Calm - N/A   Clear
3:22 AM 66.2 °F - 64.4 °F 94% 29.99 in 1.0 mi Calm Calm - N/A   Mist
3:29 AM 64.4 °F - 64.4 °F 100% 29.99 in 0.5 mi Calm Calm - N/A Fog Fog
3:35 AM 66.2 °F - 64.4 °F 94% 29.99 in 1.5 mi Calm Calm - N/A   Scattered Clouds
3:37 AM 66.2 °F - 64.4 °F 94% 29.98 in 3.0 mi Calm Calm - N/A   Partly Cloudy
3:52 AM 66.0 °F - 64.9 °F 96% 29.97 in 6.0 mi Calm Calm - N/A   Partly Cloudy
4:13 AM 66.2 °F - 64.4 °F 94% 29.98 in 2.0 mi Calm Calm - N/A   Clear
4:23 AM 66.2 °F - 64.4 °F 94% 29.98 in 5.0 mi Calm Calm - N/A   Clear
4:52 AM 66.0 °F - 64.0 °F 93% 29.97 in 7.0 mi Calm Calm - N/A   Clear
5:09 AM 64.4 °F - 62.6 °F 94% 29.99 in 1.8 mi Calm Calm - N/A   Clear
5:20 AM 64.4 °F - 64.4 °F 100% 29.99 in 0.5 mi Calm Calm - N/A Fog Fog
5:30 AM 64.4 °F - 62.6 °F 94% 29.99 in 0.5 mi Calm Calm - N/A Fog Fog
5:52 AM 64.0 °F - 63.0 °F 96% 29.98 in 0.2 mi Calm Calm - N/A Fog Fog
6:52 AM 66.9 °F - 64.9 °F 93% 29.98 in 0.5 mi NNW 3.5 mph - N/A Fog Fog
7:12 AM 66.2 °F - 66.2 °F 100% 30.00 in 1.2 mi NNW 3.5 mph - N/A   Mostly Cloudy
7:35 AM 68.0 °F - 66.2 °F 94% 30.01 in 3.0 mi NNW 3.5 mph - N/A   Mostly Cloudy
7:52 AM 69.1 °F - 66.9 °F 93% 30.00 in 5.0 mi Calm Calm - N/A   Mostly Cloudy
8:17 AM 69.8 °F - 68.0 °F 94% 30.02 in 8.0 mi Calm Calm - N/A   Scattered Clouds
8:52 AM 72.0 °F - 69.1 °F 91% 30.01 in 10.0 mi Calm Calm - N/A   Clear
9:52 AM 78.1 °F - 69.1 °F 74% 30.01 in 10.0 mi NE 3.5 mph - N/A   Clear
10:52 AM 81.0 °F 83.8 °F 68.0 °F 65% 30.01 in 10.0 mi Variable 4.6 mph - N/A   Clear
11:52 AM 82.0 °F 84.1 °F 66.0 °F 58% 30.02 in 10.0 mi Variable 3.5 mph - N/A   Clear
12:52 PM 84.9 °F 86.6 °F 64.9 °F 51% 30.02 in 10.0 mi Variable 4.6 mph - N/A   Clear
1:52 PM 86.0 °F 88.2 °F 66.0 °F 51% 30.00 in 10.0 mi Variable 4.6 mph - N/A   Clear
2:52 PM 86.0 °F 88.2 °F 66.0 °F 51% 29.99 in 10.0 mi SE 6.9 mph - N/A   Partly Cloudy
3:52 PM 87.1 °F 88.9 °F 64.9 °F 48% 29.96 in 10.0 mi East 5.8 mph - N/A   Clear
4:52 PM 87.1 °F 88.9 °F 64.9 °F 48% 29.94 in 10.0 mi South 6.9 mph - N/A   Clear
5:52 PM 87.1 °F 87.5 °F 62.1 °F 43% 29.94 in 10.0 mi Variable 4.6 mph - N/A   Clear
6:52 PM 86.0 °F 87.6 °F 64.9 °F 49% 29.94 in 10.0 mi South 3.5 mph - N/A   Clear
7:52 PM 82.0 °F 83.8 °F 64.9 °F 56% 29.95 in 10.0 mi ESE 3.5 mph - N/A   Clear
8:52 PM 79.0 °F - 68.0 °F 69% 29.96 in 10.0 mi ESE 3.5 mph - N/A   Partly Cloudy
9:20 PM 75.2 °F - 62.6 °F 65% 30.00 in 10.0 mi ENE 10.4 mph - N/A   Scattered Clouds
9:52 PM 73.0 °F - 61.0 °F 66% 29.98 in 10.0 mi ENE 9.2 mph - N/A   Clear
10:52 PM 71.1 °F - 62.1 °F 73% 29.97 in 10.0 mi Calm Calm - N/A   Clear
11:52 PM 69.1 °F - 64.0 °F 84% 29.97 in 10.0 mi Calm Calm - N/A   Clear